Find Star One C2

NORAD ID: 32768 Int'l Des: 2008-018 Owner: STONE Country: BR operational
HEOCIRCULARGSO

Current View

Loading 3D Globe...

About Star One C2

Star One C2 (NORAD 32768) is a satellite launched Apr 18, 2008 by STONE of BR. It operates in HEO, CIRCULAR, GSO orbit with a mass of 4100.00 kg.

Upcoming Passes

Passes for default location (London). Set your location on the main map for personalized predictions.

Altitude History

Loading altitude history...

Two-Line Element Set

1 32768U 08018B 26194.83329230 -.00000283 00000-0 00000+0 0 9998
2 32768 1.3061 82.2096 0002688 47.2002 37.2749 1.00271274 66924
Epoch: Jul 13, 2026 • Age: 11 hours

Current Status

Altitude 35796.9 km
Apogee / Perigee N/A
Velocity 3.07 km/s
Sub-Earth Point -1.25°S, 65.01°W
Launch Date Apr 18, 2008
Age 18.2 years
Type other

Technical Details

Classification Payload
Mass 4100.00 kg
Dry Mass 1750.00 kg
Total Mass 4100.00 kg
Length 4.00 m
Diameter 2.40 m
Span 22.40 m
Shape Box + 2 Pan
Manufacturer THALA
Bus Type Spacebus 3000B3
Phase Status In Orbit
Owner/State STONE/BR

Most Searched